Theta_e
347 347 346 348 346 347 346 344 345 349 346 347 345 345 345 344 345 348 350 359 359 359 356 355 353 351 350 351 351 352 352 351 351 349 349 349 350 349 347 346 347 347 349
346 347 346 345 345 346 346 345 343 347 344 344 343 344 344 343 344 348 350 352 360 360 357 356 355 354 353 351 350 351 353 354 352 351 350 352 352 352 351 351 351 349 348
346 347 345 345 347 347 346 344 344 345 343 340 341 343 343 341 341 345 347 347 354 359 357 356 357 356 356 354 354 352 350 350 350 351 352 350 352 352 353 353 351 351 351
349 346 346 347 349 347 345 343 343 340 337 338 335 338 340 340 340 340 343 346 350 352 357 360 359 356 356 355 355 354 354 354 354 354 353 353 351 352 354 352 353 353 353
351 347 347 347 348 347 343 345 341 339 339 340 339 334 338 340 340 342 340 343 346 350 350 355 359 359 356 356 356 356 356 355 355 354 354 352 353 352 353 354 352 353 352
351 346 345 346 346 346 343 345 341 344 339 327 333 333 335 337 339 339 340 342 343 346 347 348 350 352 358 356 358 357 355 355 356 355 355 354 354 354 351 353 352 351 351
351 348 346 344 342 345 343 344 341 338 334 328 324 325 327 331 334 336 339 339 340 341 342 343 345 347 347 358 357 357 355 356 356 356 355 354 354 352 351 350 348 348 349
352 350 347 345 342 345 345 344 341 337 336 328 325 322 318 324 330 332 333 338 338 340 340 341 342 343 341 343 347 355 358 356 355 355 355 355 351 350 348 347 344 344 343
352 352 350 347 344 346 344 343 342 338 333 330 327 325 318 316 322 328 330 332 335 336 337 338 340 341 340 340 347 349 355 352 353 354 354 351 348 345 341 340 341 341 340
351 353 352 349 348 348 345 343 345 339 333 327 327 328 330 325 321 319 325 329 330 335 335 336 338 339 340 339 345 350 352 353 356 356 354 350 343 339 338 337 338 338 339
350 354 352 349 347 347 347 344 344 342 339 332 326 323 325 328 326 318 318 323 328 330 332 334 337 340 342 340 342 345 352 353 354 355 353 344 339 338 338 338 337 337 337
348 351 353 350 348 347 346 346 345 344 343 338 331 327 325 323 326 323 320 321 323 327 330 332 334 338 341 341 346 348 352 352 351 351 345 344 344 341 341 341 340 341 341
342 347 351 350 348 348 348 347 345 344 343 343 339 333 328 323 325 323 323 322 323 326 329 330 333 336 340 338 342 350 351 348 347 342 340 341 344 346 347 345 344 342 342
343 346 350 352 350 350 349 348 345 345 344 342 341 338 332 329 326 327 325 323 320 320 325 328 331 334 335 335 337 346 343 344 341 337 337 338 340 342 344 345 345 345 344
345 347 349 351 351 351 350 349 347 345 346 344 342 342 338 333 333 331 326 324 320 316 318 326 328 333 335 333 335 335 339 338 339 336 335 335 336 338 339 340 339 339 339
342 347 348 349 352 352 351 349 348 347 346 346 346 341 341 340 336 333 331 326 323 320 317 322 326 330 333 335 336 334 334 336 337 335 334 333 334 335 336 336 336 336 336
340 342 347 348 349 352 351 349 348 350 347 347 347 345 343 341 340 337 332 330 326 323 320 322 325 328 330 331 334 336 335 330 329 334 334 333 331 332 334 334 334 334 335
343 344 344 348 349 350 352 350 348 350 349 348 348 346 346 346 340 339 335 331 329 326 324 322 322 327 328 330 332 332 335 333 329 331 333 332 331 330 330 330 330 330 331
342 341 347 348 348 349 350 352 351 349 348 349 350 348 349 345 344 343 338 336 332 330 326 324 328 324 329 329 329 330 330 331 331 333 329 330 330 329 328 326 327 325 325
346 343 342 346 351 351 351 351 353 351 349 349 350 351 350 348 348 347 344 342 339 332 328 327 329 328 327 330 329 328 327 329 331 333 335 332 332 331 330 327 327 328 322
348 348 346 344 350 352 353 352 351 352 351 350 351 350 351 351 347 346 348 345 341 336 336 331 332 326 328 327 328 330 330 332 332 334 334 335 332 333 333 330 332 331 325
345 348 347 347 346 350 341 340 349 351 350 350 350 351 351 348 346 340 339 341 345 342 339 337 336 335 334 331 333 332 329 328 325 334 334 334 335 331 333 333 332 329 326
348 345 346 347 346 348 335 335 340 352 350 349 349 349 349 352 345 351 341 336 336 335 340 347 340 338 337 337 334 331 333 331 330 334 335 332 333 331 333 334 329 329 326
352 350 347 348 348 349 334 332 336 349 351 351 351 351 350 350 350 349 350 350 346 345 343 342 345 348 349 345 339 335 334 335 335 335 337 329 332 330 334 336 330 329 325
353 353 352 350 349 351 329 329 332 348 350 351 352 352 352 351 342 334 348 349 350 351 342 334 334 335 334 333 335 336 332 331 329 332 335 331 331 330 333 333 335 329 325
353 354 354 355 345 351 332 326 330 349 348 350 352 353 337 345 333 329 346 350 349 351 352 351 345 337 333 339 333 338 338 333 332 330 335 329 329 329 324 329 330 327 324
Wind_Speed
3 2 2 1 2 2 1 0 2 3 0 2 2 4 5 5 5 3 2 12 10 9 9 9 9 8 7 8 7 6 6 6 5 4 3 3 3 1 1 2 3 4 4
3 3 3 2 2 1 0 1 3 3 2 1 3 3 4 4 5 4 2 3 8 9 8 9 9 8 9 8 7 7 6 5 4 3 1 3 3 4 4 5 5 5 5
5 5 3 2 3 2 3 3 4 1 3 3 1 3 3 5 4 5 3 2 4 9 10 10 8 9 9 9 9 8 6 6 5 5 5 4 5 6 7 6 6 6 6
6 4 4 3 3 1 2 1 0 1 1 1 1 2 2 3 4 5 4 3 2 2 8 11 10 8 8 8 8 8 8 7 8 8 7 7 6 7 8 6 7 8 7
5 4 3 3 3 3 1 1 1 1 2 2 3 3 3 3 4 4 5 4 5 4 3 8 9 8 10 9 8 8 9 8 9 9 8 7 8 8 8 6 6 7 8
5 4 3 3 1 3 2 1 1 2 2 1 2 3 2 1 2 3 4 4 5 5 4 5 4 5 10 10 7 8 8 8 9 8 7 6 8 8 6 7 6 7 8
5 5 2 2 3 2 2 1 1 1 2 2 3 4 3 4 3 2 3 3 5 5 5 4 3 3 3 9 8 7 8 8 8 8 6 5 5 4 5 3 3 5 6
6 5 5 5 5 2 1 3 2 1 1 1 3 2 2 4 3 2 3 4 6 3 4 5 4 5 4 3 5 7 7 7 8 7 6 3 2 2 2 2 3 3 5
6 6 6 5 5 3 3 3 3 3 2 1 1 4 2 3 1 3 2 3 4 4 4 4 5 5 4 4 5 5 6 6 7 7 5 4 4 4 3 3 2 3 3
7 6 6 5 5 4 4 3 3 3 3 3 1 0 1 4 3 1 3 3 3 5 5 4 4 5 5 4 7 8 8 7 7 7 7 6 6 7 6 6 5 3 2
7 8 7 6 6 4 4 5 4 4 3 3 2 1 1 1 2 3 3 3 2 3 4 4 4 4 5 5 5 6 10 9 9 8 8 8 8 8 7 6 6 5 4
5 6 7 6 6 5 5 5 5 5 5 3 2 3 4 3 4 2 1 4 3 4 4 4 5 5 5 6 9 11 11 10 9 9 9 9 8 9 8 8 6 6 5
3 7 6 6 5 6 6 5 5 5 5 4 5 4 3 4 2 3 3 2 3 3 3 4 5 4 4 4 5 10 11 11 11 10 11 11 10 9 9 9 9 8 8
7 6 9 7 7 7 6 6 4 4 5 5 7 5 3 4 3 3 3 4 2 2 2 6 3 6 5 5 9 11 6 12 13 12 11 11 12 12 11 10 9 8 8
6 6 8 9 7 7 8 7 5 6 5 5 6 6 4 3 4 3 3 3 4 3 3 4 4 6 6 6 10 7 7 10 14 14 14 14 13 13 13 12 12 10 9
7 7 7 7 6 8 9 9 6 5 6 5 5 6 5 4 5 4 3 2 2 3 4 4 5 4 5 6 9 9 10 12 14 16 15 15 14 14 14 14 12 10 9
9 9 7 7 8 9 8 8 8 8 9 8 6 6 8 6 5 4 3 3 3 4 4 4 4 2 4 6 6 8 8 8 8 17 17 16 15 15 13 14 12 11 10
8 8 7 8 9 10 10 11 11 11 11 10 10 7 9 5 7 5 4 6 5 5 4 7 3 3 6 5 6 6 8 8 9 11 16 18 17 16 14 13 12 12 7
11 8 9 9 9 10 10 11 12 12 11 12 11 10 11 7 8 5 5 6 5 4 5 5 7 3 4 3 4 4 5 8 6 12 14 17 19 15 15 13 11 11 8
12 11 11 12 12 11 11 10 11 12 11 11 11 11 11 10 12 10 8 9 6 5 4 5 7 6 4 4 3 4 5 4 9 9 13 11 11 15 9 5 9 13 9
15 14 14 12 12 13 10 12 12 12 12 12 11 11 12 14 18 15 9 11 8 7 7 7 9 4 5 4 6 5 9 8 8 8 8 5 5 4 5 9 10 14 7
14 13 14 15 14 11 15 18 15 12 13 13 13 12 13 14 15 17 19 20 14 11 11 8 10 11 14 9 8 10 6 6 7 6 9 8 7 6 6 6 9 7 7
12 14 14 14 16 16 17 18 19 14 12 13 14 14 12 10 12 13 15 18 18 17 20 15 14 14 16 12 11 10 11 9 12 4 8 8 4 4 2 5 13 13 13
14 14 14 15 15 14 15 18 18 16 14 14 15 15 15 14 12 11 12 13 13 14 14 14 19 21 18 15 11 10 10 9 5 3 4 9 7 7 9 7 14 14 11
12 14 15 15 16 15 16 18 14 13 15 17 15 14 14 15 13 13 12 13 15 13 12 20 21 22 20 17 8 1 4 6 11 11 6 2 2 3 5 6 5 12 10
13 11 13 14 16 15 15 18 16 10 14 11 13 15 16 15 12 15 14 14 16 14 14 11 9 13 17 20 15 13 12 11 11 8 5 6 4 4 2 1 4 3 3
Wind_Direction
183 186 231 228 274 281 138 74 359 36 91 241 211 199 187 169 158 161 181 191 175 169 171 170 172 172 170 174 181 183 184 181 178 178 176 190 211 222 305 309 324 327 328
159 175 197 193 250 252 303 316 58 11 289 71 309 149 170 144 145 152 170 194 192 181 189 194 191 194 188 195 198 205 214 199 204 204 258 244 259 258 278 287 305 315 320
213 177 170 189 245 331 332 300 41 99 334 19 32 155 153 139 157 157 183 183 193 197 199 206 207 208 214 197 209 215 223 227 235 237 252 254 257 266 273 277 291 293 307
215 189 163 184 208 126 229 231 14 79 155 305 289 160 164 161 161 164 178 188 199 210 209 212 213 217 223 229 222 221 222 234 237 235 238 248 266 270 276 287 287 309 300
207 182 164 169 179 124 257 22 327 225 179 123 233 169 167 212 157 163 192 204 208 206 226 226 207 210 227 239 229 230 232 230 239 247 247 253 255 263 277 283 287 296 302
185 176 174 170 155 132 157 162 272 34 60 105 128 55 81 274 159 194 199 196 210 221 217 218 220 218 221 237 243 248 251 250 245 247 258 259 257 262 274 286 303 304 295
182 194 167 172 182 166 167 156 96 352 13 56 64 15 2 3 191 221 234 223 228 231 214 210 215 228 244 243 248 236 244 250 249 247 253 255 268 278 299 316 20 0 19
181 188 191 186 194 176 232 193 137 73 25 54 121 106 30 344 2 287 213 222 241 248 242 230 213 215 222 238 247 254 246 257 255 241 249 237 194 124 129 82 60 34 49
181 196 198 183 195 190 202 181 159 164 173 342 105 137 92 218 311 324 268 227 237 232 245 238 232 229 227 233 241 245 236 247 250 232 194 173 152 139 151 129 111 93 82
191 201 201 192 200 194 208 199 171 170 133 182 354 314 89 140 167 315 316 272 257 232 234 245 236 230 223 232 238 232 229 220 225 205 201 191 181 174 175 171 167 165 144
200 202 200 194 194 191 210 190 186 184 172 156 164 136 42 27 107 125 236 274 296 237 237 227 228 227 223 215 219 232 229 215 202 191 196 198 196 192 190 195 199 201 196
211 213 201 197 202 186 196 200 206 190 191 179 169 196 182 174 195 150 203 250 220 259 222 223 227 222 218 212 215 213 219 218 212 205 198 200 209 210 207 211 217 235 250
207 219 200 201 198 194 200 197 197 205 192 182 196 219 210 214 174 151 153 212 236 269 287 241 225 221 227 221 226 220 215 212 217 216 206 203 209 216 229 232 235 243 258
204 199 207 203 204 187 194 200 194 209 195 205 213 215 224 225 190 176 173 143 315 319 300 248 233 218 216 214 221 224 215 214 211 217 217 209 211 214 222 238 249 257 271
211 203 199 206 201 193 189 191 203 210 198 213 219 213 212 227 219 211 187 167 162 232 277 277 245 212 209 199 220 208 211 216 215 212 216 215 218 216 220 223 225 235 251
209 207 198 199 193 203 198 189 206 206 202 219 220 212 217 225 229 223 217 194 179 185 250 212 246 246 215 223 224 212 219 213 217 218 218 222 224 224 219 221 231 228 230
202 210 199 193 196 208 200 198 204 207 207 225 218 212 229 209 228 215 204 204 213 168 239 280 245 264 224 222 229 218 220 216 223 221 222 223 228 229 229 231 227 227 226
197 195 192 196 204 211 203 208 212 213 213 222 227 209 233 221 233 221 209 220 211 197 196 264 254 249 219 223 235 219 223 225 226 224 217 223 226 226 232 237 234 232 201
204 196 198 205 205 213 210 211 215 215 212 220 227 218 229 207 236 227 219 227 216 207 201 220 266 244 247 217 239 235 217 227 228 228 216 222 225 225 222 233 254 248 185
203 203 205 214 212 212 213 208 214 219 218 217 222 223 227 217 230 226 226 233 224 215 205 225 252 260 228 226 207 225 248 217 237 228 228 222 208 220 218 206 231 249 181
210 209 213 213 213 217 213 209 211 216 219 224 223 225 227 226 226 227 226 238 221 222 232 233 251 239 244 230 221 223 237 239 232 219 224 219 188 165 170 194 212 222 186
208 207 211 215 215 221 218 208 210 215 217 223 231 232 232 228 230 227 225 233 225 225 238 235 253 254 256 240 243 236 224 233 259 209 216 227 171 173 163 181 188 182 181
202 208 214 214 220 223 218 212 211 225 222 223 228 235 238 234 224 236 233 236 244 237 237 249 253 245 261 248 246 241 241 232 238 261 208 233 182 172 187 180 180 193 227
205 206 213 216 220 227 208 212 213 223 232 232 230 232 236 240 232 222 233 239 235 238 234 235 244 259 256 257 239 238 242 243 258 257 235 219 176 187 158 187 201 191 211
206 211 215 214 217 226 210 207 199 221 230 236 236 233 233 238 233 215 232 242 250 252 232 235 238 247 255 265 275 142 242 237 252 247 219 248 326 107 144 189 191 190 226
215 214 219 219 219 225 211 203 198 217 230 235 239 241 233 235 216 211 225 238 252 255 252 248 242 249 252 261 248 237 253 244 251 268 210 175 126 109 151 149 152 179 207